Time,TemperatureF,DewpointF,PressureIn,WindDirection,WindDirectionDegrees,WindSpeedMPH,WindSpeedGustMPH,Humidity,HourlyPrecipIn,Conditions,Clouds,dailyrainin,SoftwareType,DateUTC
2013-05-05 00:02:00,41.0,41.0,-100.00,ENE,65,7.0,11.0,99,0.01,,,-99.99,,2013-05-05 05:02:00,
2013-05-05 00:12:00,41.0,41.0,-100.00,NE,55,6.0,11.0,99,0.00,,,-99.99,,2013-05-05 05:12:00,
2013-05-05 00:21:00,41.0,41.0,-100.00,NE,35,6.0,10.0,99,0.00,,,-99.99,,2013-05-05 05:21:00,
2013-05-05 00:31:00,41.0,41.0,-100.00,NE,50,7.0,11.0,99,0.00,,,-99.99,,2013-05-05 05:31:00,
2013-05-05 00:42:00,41.0,41.0,-100.00,North,-999,-999.0,-999.0,99,0.00,,,-99.99,,2013-05-05 05:42:00,
2013-05-05 00:51:00,41.0,41.0,-100.00,NE,55,8.0,12.0,99,0.00,,,-99.99,,2013-05-05 05:51:00,
2013-05-05 01:01:00,41.0,41.0,-100.00,NE,45,7.0,12.0,99,0.00,,,-99.99,,2013-05-05 06:01:00,
2013-05-05 01:12:00,41.0,41.0,-100.00,NE,45,7.0,12.0,99,0.00,,,-99.99,,2013-05-05 06:12:00,
2013-05-05 01:21:00,41.0,41.0,-100.00,NE,50,9.0,13.0,99,0.00,,,-99.99,,2013-05-05 06:21:00,
2013-05-05 01:32:00,41.0,41.0,-100.00,NE,50,7.0,11.0,99,0.00,,,-99.99,,2013-05-05 06:32:00,
2013-05-05 01:42:00,41.0,41.0,-100.00,NE,45,7.0,11.0,99,0.00,,,-99.99,,2013-05-05 06:42:00,
2013-05-05 01:51:00,41.0,41.0,-100.00,NE,50,7.0,12.0,99,0.00,,,-99.99,,2013-05-05 06:51:00,
2013-05-05 02:01:00,41.0,41.0,-100.00,NE,45,6.0,11.0,99,0.00,,,-99.99,,2013-05-05 07:01:00,
2013-05-05 02:11:00,41.0,41.0,-100.00,NE,35,6.0,11.0,99,0.00,,,-99.99,,2013-05-05 07:11:00,
2013-05-05 02:21:00,41.0,41.0,-100.00,NE,45,7.0,11.0,99,0.00,,,-99.99,,2013-05-05 07:21:00,
2013-05-05 02:32:00,41.0,41.0,-100.00,NE,40,7.0,10.0,99,0.00,,,-99.99,,2013-05-05 07:32:00,
2013-05-05 02:42:00,41.0,41.0,-100.00,NE,45,7.0,10.0,99,0.00,,,-99.99,,2013-05-05 07:42:00,
2013-05-05 02:52:00,41.0,41.0,-100.00,NE,40,6.0,11.0,99,0.00,,,-99.99,,2013-05-05 07:52:00,
2013-05-05 03:02:00,41.0,41.0,-100.00,NE,35,6.0,9.0,99,0.00,,,-99.99,,2013-05-05 08:02:00,
2013-05-05 03:11:00,40.0,40.0,-100.00,NE,45,4.0,10.0,99,0.00,,,-99.99,,2013-05-05 08:11:00,
2013-05-05 03:21:00,41.0,41.0,-100.00,NE,35,5.0,9.0,99,0.00,,,-99.99,,2013-05-05 08:21:00,
2013-05-05 03:31:00,41.0,41.0,-100.00,NE,40,7.0,9.0,99,0.00,,,-99.99,,2013-05-05 08:31:00,
2013-05-05 03:42:00,40.0,40.0,-100.00,NE,45,6.0,9.0,99,0.00,,,-99.99,,2013-05-05 08:42:00,
2013-05-05 03:53:00,41.0,41.0,-100.00,NNE,25,7.0,10.0,99,0.00,,,-99.99,,2013-05-05 08:53:00,
2013-05-05 04:01:00,41.0,41.0,-100.00,NNE,25,7.0,10.0,99,0.00,,,-99.99,,2013-05-05 09:01:00,
2013-05-05 04:11:00,40.0,40.0,-100.00,NE,35,6.0,9.0,99,0.00,,,-99.99,,2013-05-05 09:11:00,
2013-05-05 04:21:00,40.0,40.0,-100.00,NNE,25,6.0,9.0,99,0.00,,,-99.99,,2013-05-05 09:21:00,
2013-05-05 04:32:00,40.0,40.0,-100.00,NE,35,5.0,11.0,99,0.00,,,-99.99,,2013-05-05 09:32:00,
2013-05-05 04:52:00,40.0,40.0,-100.00,NE,50,6.0,9.0,99,0.00,,,-99.99,,2013-05-05 09:52:00,
2013-05-05 05:02:00,40.0,40.0,-100.00,NE,45,4.0,9.0,99,0.00,,,-99.99,,2013-05-05 10:02:00,
2013-05-05 05:12:00,40.0,40.0,-100.00,NE,45,6.0,9.0,99,0.00,,,-99.99,,2013-05-05 10:12:00,
2013-05-05 05:22:00,40.0,40.0,-100.00,NNE,25,6.0,9.0,99,0.00,,,-99.99,,2013-05-05 10:22:00,
2013-05-05 05:32:00,40.0,40.0,-100.00,NNE,30,10.0,13.0,99,0.00,,,-99.99,,2013-05-05 10:32:00,
2013-05-05 05:42:00,40.0,40.0,-100.00,NNE,25,8.0,13.0,99,0.00,,,-99.99,,2013-05-05 10:42:00,
2013-05-05 05:52:00,40.0,40.0,-100.00,NNE,30,9.0,12.0,99,0.00,,,-99.99,,2013-05-05 10:52:00,
2013-05-05 06:12:00,40.0,40.0,-100.00,NNE,20,8.0,15.0,99,0.00,,,-99.99,,2013-05-05 11:12:00,
2013-05-05 06:21:00,40.0,40.0,-100.00,NNE,25,7.0,12.0,99,0.00,,,-99.99,,2013-05-05 11:21:00,
2013-05-05 06:32:00,40.0,40.0,-100.00,NE,35,7.0,15.0,99,0.00,,,-99.99,,2013-05-05 11:32:00,
2013-05-05 06:42:00,40.0,40.0,-100.00,North,-999,-999.0,-999.0,99,-99.99,,,-99.99,,2013-05-05 11:42:00,
2013-05-05 06:51:00,40.0,40.0,-100.00,NE,50,7.0,12.0,99,0.00,,,-99.99,,2013-05-05 11:51:00,
2013-05-05 07:02:00,40.0,40.0,-100.00,NE,50,7.0,12.0,99,0.00,,,-99.99,,2013-05-05 12:02:00,
2013-05-05 07:11:00,40.0,40.0,-100.00,NE,35,7.0,16.0,99,0.00,,,-99.99,,2013-05-05 12:11:00,
2013-05-05 07:21:00,40.0,40.0,-100.00,NE,50,7.0,12.0,99,0.00,,,-99.99,,2013-05-05 12:21:00,
2013-05-05 07:32:00,41.0,41.0,-100.00,NE,45,8.0,12.0,99,0.00,,,-99.99,,2013-05-05 12:32:00,
2013-05-05 07:42:00,41.0,41.0,-100.00,NE,45,7.0,14.0,99,0.00,,,-99.99,,2013-05-05 12:42:00,
2013-05-05 07:52:00,41.0,41.0,-100.00,ENE,60,6.0,12.0,99,0.00,,,-99.99,,2013-05-05 12:52:00,
2013-05-05 08:01:00,41.0,41.0,-100.00,NE,40,6.0,12.0,99,0.00,,,-99.99,,2013-05-05 13:01:00,
2013-05-05 08:11:00,41.0,41.0,-100.00,NE,50,9.0,12.0,99,0.00,,,-99.99,,2013-05-05 13:11:00,
2013-05-05 08:21:00,41.0,41.0,-100.00,NE,50,8.0,12.0,99,0.00,,,-99.99,,2013-05-05 13:21:00,
2013-05-05 08:32:00,41.0,41.0,-100.00,NE,55,7.0,11.0,99,0.00,,,-99.99,,2013-05-05 13:32:00,
2013-05-05 08:42:00,41.0,41.0,-100.00,NE,55,7.0,11.0,99,0.00,,,-99.99,,2013-05-05 13:42:00,
2013-05-05 08:52:00,42.0,42.0,-100.00,NE,45,9.0,13.0,100,0.00,,,-99.99,,2013-05-05 13:52:00,
2013-05-05 09:01:00,42.0,42.0,-100.00,NE,45,9.0,13.0,100,0.00,,,-99.99,,2013-05-05 14:01:00,
2013-05-05 09:11:00,42.0,42.0,-100.00,ENE,65,7.0,11.0,99,0.00,,,-99.99,,2013-05-05 14:11:00,
2013-05-05 09:21:00,43.0,43.0,-100.00,NE,55,8.0,13.0,99,0.00,,,-99.99,,2013-05-05 14:21:00,
2013-05-05 09:31:00,43.0,43.0,-100.00,ENE,60,6.0,12.0,99,0.00,,,-99.99,,2013-05-05 14:31:00,
2013-05-05 09:42:00,43.0,43.0,-100.00,ENE,60,6.0,12.0,99,0.00,,,-99.99,,2013-05-05 14:42:00,
2013-05-05 09:51:00,44.0,44.0,-100.00,NE,45,7.0,13.0,99,0.00,,,-99.99,,2013-05-05 14:51:00,
2013-05-05 10:02:00,44.0,44.0,-100.00,NE,45,7.0,13.0,99,0.00,,,-99.99,,2013-05-05 15:02:00,
2013-05-05 10:21:00,44.0,44.0,-100.00,NE,45,9.0,12.0,99,0.00,,,-99.99,,2013-05-05 15:21:00,
2013-05-05 10:33:00,45.0,45.0,-100.00,NNE,25,9.0,13.0,99,0.00,,,-99.99,,2013-05-05 15:33:00,
2013-05-05 10:43:00,45.0,45.0,-100.00,NNE,25,12.0,15.0,98,0.00,,,-99.99,,2013-05-05 15:43:00,
2013-05-05 10:53:00,46.0,46.0,-100.00,NNE,30,11.0,16.0,97,0.00,,,-99.99,,2013-05-05 15:53:00,
2013-05-05 11:03:00,47.0,46.0,-100.00,NNE,25,11.0,16.0,97,0.00,,,-99.99,,2013-05-05 16:03:00,
2013-05-05 11:22:00,47.0,46.0,-100.00,NNE,15,9.0,13.0,96,0.00,,,-99.99,,2013-05-05 16:22:00,
2013-05-05 11:32:00,48.0,47.0,-100.00,NNE,30,7.0,12.0,95,0.00,,,-99.99,,2013-05-05 16:32:00,
2013-05-05 11:42:00,48.0,46.0,-100.00,NNE,30,6.0,13.0,95,0.00,,,-99.99,,2013-05-05 16:42:00,
2013-05-05 11:52:00,48.0,47.0,-100.00,NNE,20,7.0,11.0,95,0.00,,,-99.99,,2013-05-05 16:52:00,
2013-05-05 12:12:00,48.0,46.0,-100.00,NNE,25,9.0,12.0,94,0.00,,,-99.99,,2013-05-05 17:12:00,
2013-05-05 12:23:00,48.0,47.0,-100.00,NNE,25,7.0,11.0,94,0.00,,,-99.99,,2013-05-05 17:23:00,
2013-05-05 12:32:00,48.0,47.0,-100.00,NNE,20,9.0,12.0,93,0.00,,,-99.99,,2013-05-05 17:32:00,
2013-05-05 12:42:00,49.0,47.0,-100.00,NNE,25,6.0,11.0,93,0.00,,,-99.99,,2013-05-05 17:42:00,
2013-05-05 12:52:00,49.0,47.0,-100.00,NNE,20,12.0,14.0,92,0.00,,,-99.99,,2013-05-05 17:52:00,
2013-05-05 13:01:00,49.0,47.0,-100.00,NNE,20,12.0,14.0,92,0.00,,,-99.99,,2013-05-05 18:01:00,
2013-05-05 13:12:00,49.0,47.0,-100.00,NNE,25,10.0,12.0,92,0.00,,,-99.99,,2013-05-05 18:12:00,
2013-05-05 13:21:00,50.0,48.0,-100.00,NNE,15,7.0,11.0,91,0.00,,,-99.99,,2013-05-05 18:21:00,
2013-05-05 13:32:00,50.0,48.0,-100.00,NNE,30,10.0,12.0,91,0.00,,,-99.99,,2013-05-05 18:32:00,
2013-05-05 13:51:00,50.0,48.0,-100.00,NNE,30,11.0,15.0,91,0.00,,,-99.99,,2013-05-05 18:51:00,
2013-05-05 14:01:00,50.0,48.0,-100.00,NNE,30,11.0,15.0,91,0.00,,,-99.99,,2013-05-05 19:01:00,
2013-05-05 14:11:00,50.0,48.0,-100.00,NNE,20,12.0,15.0,91,0.00,,,-99.99,,2013-05-05 19:11:00,
2013-05-05 14:21:00,51.0,48.0,-100.00,NNE,20,8.0,15.0,90,0.00,,,-99.99,,2013-05-05 19:21:00,
2013-05-05 14:32:00,51.0,48.0,-100.00,NNE,25,10.0,12.0,88,0.00,,,-99.99,,2013-05-05 19:32:00,
2013-05-05 14:41:00,52.0,48.0,-100.00,NE,40,7.0,12.0,88,0.00,,,-99.99,,2013-05-05 19:41:00,
2013-05-05 14:52:00,52.0,48.0,-100.00,NNE,30,10.0,15.0,87,0.00,,,-99.99,,2013-05-05 19:52:00,
2013-05-05 15:01:00,52.0,49.0,-100.00,NE,50,7.0,12.0,87,0.00,,,-99.99,,2013-05-05 20:01:00,
2013-05-05 15:11:00,52.0,48.0,-100.00,NNE,20,11.0,14.0,86,0.00,,,-99.99,,2013-05-05 20:11:00,
2013-05-05 15:21:00,51.0,48.0,-100.00,NNE,15,12.0,16.0,87,0.00,,,-99.99,,2013-05-05 20:21:00,
2013-05-05 15:31:00,52.0,48.0,-100.00,NNE,25,10.0,14.0,88,0.00,,,-99.99,,2013-05-05 20:31:00,
2013-05-05 15:41:00,51.0,48.0,-100.00,NNE,30,9.0,14.0,88,0.00,,,-99.99,,2013-05-05 20:41:00,
2013-05-05 15:52:00,52.0,48.0,-100.00,NNE,25,11.0,15.0,88,0.03,,,-99.99,,2013-05-05 20:52:00,
2013-05-05 16:01:00,52.0,49.0,-100.00,NNE,25,9.0,15.0,91,0.06,,,-99.99,,2013-05-05 21:01:00,
2013-05-05 16:11:00,52.0,50.0,-100.00,NNE,25,10.0,14.0,90,0.00,,,-99.99,,2013-05-05 21:11:00,
2013-05-05 16:21:00,52.0,49.0,-100.00,NNE,30,9.0,14.0,89,0.00,,,-99.99,,2013-05-05 21:21:00,
2013-05-05 16:33:00,52.0,49.0,-100.00,NNE,25,11.0,14.0,89,0.00,,,-99.99,,2013-05-05 21:33:00,
2013-05-05 16:42:00,53.0,50.0,-100.00,NNE,25,12.0,14.0,89,0.00,,,-99.99,,2013-05-05 21:42:00,
2013-05-05 16:52:00,53.0,49.0,-100.00,NE,40,10.0,14.0,86,0.00,,,-99.99,,2013-05-05 21:52:00,
2013-05-05 17:02:00,53.0,49.0,-100.00,NE,40,10.0,14.0,86,0.00,,,-99.99,,2013-05-05 22:02:00,
2013-05-05 17:22:00,54.0,50.0,-100.00,NNE,25,11.0,16.0,85,0.00,,,-99.99,,2013-05-05 22:22:00,
2013-05-05 17:33:00,53.0,49.0,-100.00,NE,40,7.0,13.0,85,0.00,,,-99.99,,2013-05-05 22:33:00,
2013-05-05 17:42:00,54.0,49.0,-100.00,NE,40,7.0,14.0,85,0.00,,,-99.99,,2013-05-05 22:42:00,
2013-05-05 17:52:00,53.0,49.0,-100.00,NNE,30,10.0,13.0,85,0.00,,,-99.99,,2013-05-05 22:52:00,
2013-05-05 18:02:00,54.0,49.0,-100.00,NNE,25,9.0,13.0,85,0.00,,,-99.99,,2013-05-05 23:02:00,
2013-05-05 18:11:00,54.0,49.0,-100.00,NNE,20,11.0,12.0,85,0.00,,,-99.99,,2013-05-05 23:11:00,
2013-05-05 18:21:00,53.0,49.0,-100.00,NNE,25,8.0,13.0,86,0.00,,,-99.99,,2013-05-05 23:21:00,
2013-05-05 18:32:00,53.0,49.0,-100.00,NE,45,7.0,12.0,86,0.00,,,-99.99,,2013-05-05 23:32:00,
2013-05-05 18:42:00,53.0,49.0,-100.00,NNE,30,7.0,12.0,86,0.00,,,-99.99,,2013-05-05 23:42:00,
2013-05-05 18:52:00,53.0,49.0,-100.00,NE,35,7.0,12.0,87,0.00,,,-99.99,,2013-05-05 23:52:00,
2013-05-05 19:01:00,53.0,49.0,-100.00,ENE,60,6.0,9.0,87,0.00,,,-99.99,,2013-05-06 00:01:00,
2013-05-05 19:11:00,53.0,49.0,-100.00,NE,40,6.0,11.0,87,0.00,,,-99.99,,2013-05-06 00:11:00,
2013-05-05 19:21:00,53.0,49.0,-100.00,NE,45,7.0,11.0,87,0.00,,,-99.99,,2013-05-06 00:21:00,
2013-05-05 19:31:00,53.0,49.0,-100.00,NE,45,6.0,10.0,88,0.00,,,-99.99,,2013-05-06 00:31:00,
2013-05-05 19:41:00,52.0,49.0,-100.00,NE,40,4.0,9.0,88,0.00,,,-99.99,,2013-05-06 00:41:00,
2013-05-05 19:51:00,52.0,49.0,-100.00,NE,50,4.0,9.0,89,0.00,,,-99.99,,2013-05-06 00:51:00,
2013-05-05 20:01:00,52.0,49.0,-100.00,ENE,60,7.0,9.0,89,0.00,,,-99.99,,2013-05-06 01:01:00,
2013-05-05 20:11:00,52.0,49.0,-100.00,NE,45,6.0,9.0,90,0.00,,,-99.99,,2013-05-06 01:11:00,
2013-05-05 20:21:00,52.0,49.0,-100.00,NNE,25,6.0,9.0,90,0.00,,,-99.99,,2013-05-06 01:21:00,
2013-05-05 20:31:00,51.0,49.0,-100.00,NE,45,6.0,9.0,90,0.00,,,-99.99,,2013-05-06 01:31:00,
2013-05-05 20:41:00,51.0,49.0,-100.00,NE,45,6.0,9.0,90,0.00,,,-99.99,,2013-05-06 01:41:00,
2013-05-05 20:52:00,51.0,49.0,-100.00,NE,40,5.0,10.0,91,0.00,,,-99.99,,2013-05-06 01:52:00,
2013-05-05 21:01:00,51.0,49.0,-100.00,NE,40,5.0,10.0,91,0.00,,,-99.99,,2013-05-06 02:01:00,
2013-05-05 21:12:00,51.0,49.0,-100.00,NE,40,5.0,8.0,92,0.00,,,-99.99,,2013-05-06 02:12:00,
2013-05-05 21:21:00,51.0,49.0,-100.00,NE,40,4.0,10.0,92,0.00,,,-99.99,,2013-05-06 02:21:00,
2013-05-05 21:32:00,51.0,49.0,-100.00,ENE,65,5.0,9.0,92,0.00,,,-99.99,,2013-05-06 02:32:00,
2013-05-05 21:42:00,51.0,49.0,-100.00,NE,35,4.0,6.0,92,0.00,,,-99.99,,2013-05-06 02:42:00,
2013-05-05 21:51:00,51.0,49.0,-100.00,NE,55,3.0,6.0,93,0.00,,,-99.99,,2013-05-06 02:51:00,
2013-05-05 22:02:00,51.0,49.0,-100.00,NNE,25,6.0,7.0,93,0.00,,,-99.99,,2013-05-06 03:02:00,
2013-05-05 22:11:00,51.0,49.0,-100.00,NNE,30,3.0,6.0,93,0.00,,,-99.99,,2013-05-06 03:11:00,
2013-05-05 22:22:00,50.0,49.0,-100.00,NNE,30,4.0,6.0,94,0.00,,,-99.99,,2013-05-06 03:22:00,
2013-05-05 22:33:00,50.0,49.0,-100.00,NNE,25,4.0,6.0,95,0.00,,,-99.99,,2013-05-06 03:33:00,
2013-05-05 22:42:00,50.0,49.0,-100.00,NNE,25,5.0,6.0,95,0.00,,,-99.99,,2013-05-06 03:42:00,
2013-05-05 22:52:00,50.0,49.0,-100.00,NNE,15,6.0,7.0,96,0.00,,,-99.99,,2013-05-06 03:52:00,
2013-05-05 23:02:00,50.0,49.0,-100.00,NNE,20,5.0,6.0,96,0.00,,,-99.99,,2013-05-06 04:02:00,
2013-05-05 23:12:00,50.0,49.0,-100.00,North,10,6.0,7.0,96,0.00,,,-99.99,,2013-05-06 04:12:00,
2013-05-05 23:23:00,49.0,49.0,-100.00,NNE,15,6.0,8.0,96,0.00,,,-99.99,,2013-05-06 04:23:00,
2013-05-05 23:32:00,49.0,49.0,-100.00,North,10,5.0,7.0,96,0.00,,,-99.99,,2013-05-06 04:32:00,
2013-05-05 23:42:00,49.0,49.0,-100.00,North,-999,-999.0,-999.0,97,0.00,,,-99.99,,2013-05-06 04:42:00,
2013-05-05 23:52:00,49.0,49.0,-100.00,NNE,15,4.0,6.0,97,0.00,,,-99.99,,2013-05-06 04:52:00,